Home > Weather > Churchill > Past weeks

Flag for Canada Past Weather in Churchill, Manitoba, Canada — Yesterday and Last 2 Weeks

Now
61 °F

Partly sunny.


Feels Like: 61 °F
Forecast: 45 / 63 °F
Wind: 13 mph from South

Location: Churchill

Current Time: Jul 23, 2016 at 11:59:39 AM

Latest Report: Jul 23, 2016 at 11:00 AM


Visibility: 15 mi

Pressure: 29.77 "Hg

Humidity: 63%

Dew Point: 48 °F

Location of ChurchillLocation

Past Weather in Churchill — Graph

°F

Churchill Temperature Yesterday

Maximum temperature yesterday: 57 °F (at 6:00 PM)
Minimum temperature yesterday: 50 °F (at 8:00 AM)
Average temperature yesterday: 53 °F

High & Low Weather Summary for the Past Weeks

 TemperatureHumidityPressure
High81 °F (Jul 15, 2:00 PM)100% (Jul 12, 5:00 AM)30.21 "Hg (Jul 12, 5:00 AM)
Low39 °F (Jul 12, 11:00 PM)37% (Jul 15, 5:00 PM)29.28 "Hg (Jul 16, 3:00 PM)
Average54 °F76%29.77 "Hg
* Reported Jul 8 10:00 AM — Jul 23 10:00 AM, Churchill, Weather by CustomWeather, © 2016

Note: Actual official high and low records may vary slightly from our data, if they occured in-between our weather recording intervals... More about our weather records

Advertising

Churchill Weather History for the Previous 24 Hours

Scroll right to see more
 ConditionsComfort  
Time TempWeatherWind HumidityBarometerVisibility
10:00 AM
Sat, Jul 23
57 °FOvercast.13 mph67%29.80 "Hg15 mi
9:00 AM57 °FSprinkles. Partly sunny.10 mph67%29.82 "Hg15 mi
8:54 AM57 °FSprinkles. Mostly cloudy.9 mph67%29.82 "Hg15 mi
8:00 AM55 °FCloudy.9 mph67%29.85 "Hg15 mi
7:00 AM52 °FBroken clouds.12 mph77%29.86 "Hg15 mi
6:00 AM48 °FBroken clouds.10 mph87%29.88 "Hg15 mi
5:00 AM46 °FPartly cloudy.10 mph87%29.89 "Hg15 mi
4:00 AM45 °FPassing clouds.8 mph93%29.90 "Hg15 mi
3:00 AM46 °FPassing clouds.9 mph87%29.90 "Hg15 mi
2:00 AM46 °FPassing clouds.9 mph82%29.90 "Hg15 mi
1:00 AM48 °FPassing clouds.8 mph76%29.90 "Hg15 mi
12:00 AM50 °FPassing clouds.7 mph71%29.91 "Hg15 mi
11:00 PM
Fri, Jul 22
52 °FPassing clouds.6 mph72%29.91 "Hg15 mi
10:00 PM54 °FPartly sunny.6 mph67%29.91 "Hg15 mi
9:00 PM55 °FScattered clouds.3 mph59%29.91 "Hg15 mi
8:00 PM55 °FScattered clouds.2 mph55%29.91 "Hg15 mi
7:00 PM55 °FPassing clouds.6 mph51%29.90 "Hg15 mi
6:00 PM57 °FPassing clouds.10 mph48%29.90 "Hg15 mi
5:00 PM55 °FPassing clouds.10 mph51%29.89 "Hg15 mi
4:00 PM55 °FPassing clouds.12 mph55%29.88 "Hg15 mi
3:00 PM55 °FPassing clouds.14 mph55%29.88 "Hg15 mi
2:00 PM55 °FPassing clouds.16 mph59%29.86 "Hg15 mi
1:00 PM54 °FPassing clouds.20 mph63%29.84 "Hg15 mi
12:00 PM52 °FPassing clouds.21 mph72%29.80 "Hg15 mi
11:00 AM52 °FScattered clouds.24 mph72%29.77 "Hg15 mi
Weather by CustomWeather, © 2016

See weather overviewHow to use our weather pages